Regional Weather Roundup
Issued by NWS Sterling, VA

Home | Current Version | Previous Version | Graphics & Text | Print | Product List | Glossary On
Versions: 1 2 3 4 5 6 7 8 9 10 11 12 13 14 15 16 17 18 19 20 21 22 23 24 25 26 27 28
000
ASUS41 KLWX 290111
RWRLWX

REGIONAL WEATHER ROUNDUP
NATIONAL WEATHER SERVICE BALTIMORE MD/WASHINGTON DC
900 PM EDT SUN MAY 28 2017

Note: "FAIR" indicates few or no clouds below 12,000 feet
with no significant weather and/or obstructions to visibility.
 TC=TEMPERATURE CELSIUS

 * =Non NWS site. Station does not report precipitation (e.g. rain,
    snow, etc.), thunder, or fog.

DCZ001-MDZ009-015-VAZ040>042-051-053>054-290200-
WASHINGTON METRO

CITY           SKY/WX    TMP DP  RH WIND       PRES   REMARKS
WASHINGTON NAT CLOUDY    67  65  93 E6        29.83F
DULLES         CLOUDY    66  63  90 NE3       29.84S
ANDREWS AFB    CLOUDY    65  64  95 E7        29.82F
FT BELVOIR     CLOUDY    68  64  88 CALM      29.83S
QUANTICO       CLOUDY    69  67  93 NE7       29.83S
COLLEGE PARK*  CLOUDY    65  63  94 CALM      29.84S
LEESBURG*      CLOUDY    66  66 100 CALM      29.85S
MANASSAS*      CLOUDY    67  64  90 CALM      29.84S
GAITHERSBURG*  CLOUDY    65  63  93 VRB3      29.85F

$$

MDZ006>007-011-014-290200-
BALTIMORE METRO

CITY           SKY/WX    TMP DP  RH WIND       PRES   REMARKS
BWI AIRPORT    LGT RAIN  64  64 100 E9        29.84S
MD SCIENCE CTR   N/A     66  64  93 MISG      29.84F
MARTIN STATE   RAIN      64  64 100 E5        29.86S
ANNAPOLIS      LGT RAIN  66  65  96 E6        29.83F
FORT MEADE*    CLOUDY    63  61  94 CALM      29.87S

$$

MDZ012-015-019>023-290200-
MARYLAND EASTERN SHORE

CITY           SKY/WX    TMP DP  RH WIND       PRES   REMARKS
OCEAN CITY     CLOUDY    62  61  96 NE3       29.82R
SALISBURY      CLOUDY    64  64 100 NE3       29.81S
BAY BRIDGE AP* CLOUDY    64  63  94 E6        29.84S
CAMBRIDGE*     CLOUDY    64  63  94 CALM      29.82S
EASTON*        DRIZZLE   64  63  94 E6        29.87S

$$

MDZ017>025-290200-
SOUTHERN MARYLAND

CITY           SKY/WX    TMP DP  RH WIND       PRES   REMARKS
PATUXENT RIVER CLOUDY    67  67 100 NE5       29.81S
ST INIGOES     CLOUDY    69  67  93 CALM      29.81S
LEONARDTOWN*   CLOUDY    66  64  94 CALM      29.83F

$$

MDZ003>005-290200-
NORTH CENTRAL MARYLAND

CITY           SKY/WX    TMP DP  RH WIND       PRES   REMARKS
FREDERICK*     NOT AVBL
HAGERSTOWN APT HVY RAIN  65  63  93 W3        29.85S FOG
WESTMINSTER*   CLOUDY    64  63  94 CALM      29.86S

$$

MDZ501>502-290200-
WESTERN MARYLAND

CITY           SKY/WX    TMP DP  RH WIND       PRES   REMARKS
OAKLAND*       CLOUDY    61  55  82 S5        29.88S
CUMBERLAND*    CLOUDY    64  64 100 CALM      29.87S

$$

VAZ025>031-290200-
SHENANDOAH VALLEY

CITY           SKY/WX    TMP DP  RH WIND       PRES   REMARKS
WINCHESTER*    LGT RAIN  63  61  94 CALM      29.84S
FRONT ROYAL*   CLOUDY    64  64 100 CALM      29.83S
LURAY*         CLOUDY    66  64  94 CALM      29.84S
NEW MARKET*    CLOUDY    66  65  94 CALM      29.83S
STAUNTON*      CLOUDY    65  64  97 CALM      29.86F
WAYNESBORO*    CLOUDY    64  64 100 CALM      29.85S

$$

WVZ021-048>050-054>055-290200-
EASTERN WEST VIRGINIA PANHANDLE

CITY           SKY/WX    TMP DP  RH WIND       PRES   REMARKS
MARTINSBURG    LGT RAIN  65  62  90 N3        29.83F
PETERSBURG*    CLOUDY    67  66  97 CALM      29.83S

$$

VAZ036>039-050-290200-
CENTRAL FOOTHILLS

CITY           SKY/WX    TMP DP  RH WIND       PRES   REMARKS
CHARLOTTESVILL CLOUDY    67  66  97 CALM      29.83S FOG
CULPEPER*      DRIZZLE   67  66  99 CALM      29.85S
ORANGE*        RAIN      64  64 100 CALM      29.83F
GORDONSVILLE*  CLOUDY    65  65 100 CALM      29.82F FOG
WARRENTON*     DRIZZLE   68  64  87 CALM      29.83S

$$

VAZ055>057-290200-
NORTH AND CENTRAL PIEDMONT

CITY           SKY/WX    TMP DP  RH WIND       PRES   REMARKS
FREDERICKSBRG* CLOUDY    69  69 100 CALM      29.82S
STAFFORD*      LGT RAIN  67  67 100 CALM      29.87S

$$

NCZ024-NYZ072-PAZ021-071-VAZ022-071-290200-
OTHER REGIONAL OBSERVATIONS

CITY           SKY/WX    TMP DP  RH WIND       PRES   REMARKS
NEW YORK CITY  CLOUDY    63  50  62 VRB5      29.97S
PHILADELPHIA   LGT RAIN  63  57  81 E13       29.88F
PITTSBURGH     MOCLDY    74  63  68 SW6       29.74F
ROANOKE        PTCLDY    72  61  68 W7        29.86R
RICHMOND       CLOUDY    74  69  85 NE3       29.80F
RALEIGH        CLOUDY    77  67  71 W3        29.81S

$$

ANZ530>537-290200-
MARINE OBSERVATIONS

STATION/POSITION TIME  TEMP    WIND        PRES
                       AIR SEA DIR/SP/G
                 (UTC) (F)     (DEG/KT/KT) (MB)
THOMAS PT LIGHT  0100   64 65   70/  7/  8   N/A
BALT KEY BRIDGE  0042   65      80/  8/ 11 1010.3F
COVE POINT       0042   66      70/  7/  8 1010.3S
LEWISETTA        0042   67 71   80/  4/  5 1009.2F
SOLOMONS ISLAND  0042   68 68   60/  5/  6   N/A
PINEY POINT      0042          110/  5/  6   N/A

$$





USA.gov is the U.S. government's official web portal to all federal, state and local government web resources and services.